Погода в Усть-Аваме

Россия / Красноярский край     71°06′50″N   92°49′14″E
темп.,
°C
ветер,
м/с
пор.,
м/с
влажн.,
%
обл.,
%
осадки,
мм/ч
давл.,
гПа
погр.,
м
16 апреля, пт
пт1601:00−19с51098100 0.8 992291
04:00−22сз4798100 0.6 994247
07:00−23зсз6898100 1.1 997288
10:00−23з7994100 0.2 999384
13:00−20з81091100 0.3 1000611
16:00−18зсз81091100 0.1 1002827
19:00−19зсз71094100 0.3 1004675
22:00−19з71196100 0.3 1005498
17 апреля, сб
сб1701:00−20з71196100 0.4 1006414
04:00−21з71197100 0.2 1007399
07:00−21зюз71196100 0.4 1008421
10:00−20з81093100 0.1 1009478
13:00−19з7988100 0.2 1011611
16:00−18з7888100 0.1 1013620
19:00−19з699498 0.1 1015473
22:00−22зюз5109786 0.0 1016200
18 апреля, вс
вс1801:00−24зюз599876 0.1 1017167
04:00−26зюз4999100 0.0 1018134
07:00−24з5797100 0.1 1019180
10:00−21з459593 0.1 1019234
13:00−18з4492100 0.1 1020287
16:00−17з448988 0.0 1021307
19:00−17зюз469588 0.0 1021141
22:00−20зюз469987 0.0 102267
19 апреля, пн
пн1901:00−22зюз3510077 0.0 102158
04:00−24зюз3310083 0.0 102139
07:00−24зюз3410092 0.0 102154
10:00−19зюз239567 0.0 1020133
13:00−16з228944 0.0 1020193
16:00−14сз11875 0.0 1019169
19:00−18св11965 0.0 10199
22:00−24всв2210057 0.0 10199
20 апреля, вт
вт2001:00−26в2210099 0.0 10189
04:00−27в33100100 0.0 101928
07:00−23всв3710098 0.1 1019107
10:00−16в47905 0.0 1020222
13:00−13в57835 0.0 1021337
16:00−12всв46865 0.0 1022375
19:00−15св34945 0.0 102447
22:00−23св2210064 0.0 102510